Station SPGF1 - Settlement Point, GBI, Bahamas Image indicating link to RSS feed of recent meteorological observations for station SPGF1


Conditions at SPGF1 as of
(5:00 am EDT)
0900 GMT on 05/29/2024:
     

Click on the graph icon in the table below to see a time series plot of the last five days of that observation.

5-day plot - Wind Direction Wind Direction (WDIR): SW ( 220 deg true )
5-day plot - Wind Speed Wind Speed (WSPD): 10 kts
5-day plot - Wind Gust Wind Gust (GST): 10 kts
5-day plot - Atmospheric Pressure Atmospheric Pressure (PRES):29.99 in
5-day plot - Pressure Tendency Pressure Tendency (PTDY):-0.04 in ( Falling )
5-day plot - Air Temperature Air Temperature (ATMP): 81.1 °F
5-day plot - Wind Speed at 10 Meters Wind Speed at 10 meters (WSPD10M): 10 kts
5-day plot - Wind Speed at 20 Meters Wind Speed at 20 meters (WSPD20M): 12 kts
5-day plot -  Wind Speed, Wind Gust and Atmospheric Pressure Combined plot of Wind Speed, Gust, and Air Pressure
Continuous Winds
TIME
(EDT)
5-day plot - Wind Direction WDIR 5-day plot - Wind Speed WSPD
5:00 amSW ( 218 deg ) 10 kts
4:50 amSSW ( 212 deg ) 10 kts
4:40 amSSW ( 209 deg ) 10 kts
4:30 amSSW ( 193 deg ) 12 kts
4:20 amS ( 191 deg ) 13 kts
4:10 amSSW ( 197 deg ) 14 kts
 
Peak gust during the measurement hour
TIME
(EDT)
5-day plot - Gust Direction GDR 5-day plot - Gust Speed GST
4:13 amS ( 180 deg ) 17 kts
Previous observations
TIME
(EDT)
5-day plot - Wind Direction
WDIR
 
5-day plot - Wind Speed
WSPD
kts
5-day plot - Wind Gust
GST
kts
5-day plot - Wave Height
WVHT
ft
5-day plot - Dominant Wave Period
DPD
sec
5-day plot - Average Wave Period
APD
sec
5-day plot - Mean Wave Direction
MWD
 
5-day plot - Atmospheric Pressure
PRES
in
5-day plot - Pressure Tendency
PTDY
in
5-day plot - Air Temperature
ATMP
°F
5-day plot - Water Temperature
WTMP
°F
5-day plot - Dew Point
DEWP
°F
5-day plot - Salinity
SAL
psu
5-day plot - Visibility
VIS
nmi
5-day plot - Tide (above MLLW)
TIDE
ft
2024-05-29 04:00 amSSW 13 15----30.00-0.03 81.0-----
2024-05-29 03:00 am S 11 14----30.01-0.03 76.3-----
2024-05-29 02:00 amSSW 31 35----30.03-0.01 75.6-----
2024-05-29 01:00 amSSE 6 8----30.03+0.00 82.8-----
2024-05-29 12:00 am S 8 9----30.04+0.02 84.0-----
2024-05-28 11:00 pm S 7 8----30.04+0.03 84.0-----
2024-05-28 10:00 pmSSW 10 10----30.03+0.04 84.4-----
2024-05-28 09:00 pm SW 8 9----30.02+0.03 84.4-----
2024-05-28 08:00 pmSSW 8 9----30.01+0.02 84.2-----
2024-05-28 07:00 pm S 6 8----29.99-0.01 84.6-----
2024-05-28 06:00 pm S 8 10----29.99-0.04 85.1-----
2024-05-28 05:00 pm SW 4 5----29.99-0.05 84.7-----
2024-05-28 04:00 pmSSW 5 6----30.01-0.05 84.4-----
2024-05-28 03:00 pm SW 7 8----30.03-0.04 84.2-----
2024-05-28 02:00 pm SW 10 10----30.04-0.03 83.5-----
2024-05-28 01:00 pm SW 7 8----30.06+0.00 83.8-----
2024-05-28 12:00 pmWSW 9 10----30.06+0.00 83.3-----
2024-05-28 11:00 amSSW 10 12----30.07+0.03 81.0-----
2024-05-28 10:00 am S 12 13----30.06+0.01 84.4-----
2024-05-28 09:00 am S 9 11----30.07+0.04 84.2-----
2024-05-28 08:00 am S 9 12----30.04+0.03 84.0-----
2024-05-28 07:00 am S 8 10----30.05+0.04 83.3-----
2024-05-28 06:00 am S 9 11----30.03+0.02 82.9-----
2024-05-28 05:00 am S 10 14----30.01-0.01 82.9-----